Year,Month,Day,Hour,Minute,Value (Times are PST for windspeed in km/hr)
2015,08,29,00,00,0.00
2015,08,29,00,01,0.00
2015,08,29,00,02,0.00
2015,08,29,00,03,0.00
2015,08,29,00,04,0.00
2015,08,29,00,05,0.00
2015,08,29,00,06,0.00
2015,08,29,00,07,0.00
2015,08,29,00,08,0.00
2015,08,29,00,09,0.00
2015,08,29,00,10,0.00
2015,08,29,00,11,0.00
2015,08,29,00,12,0.00
2015,08,29,00,13,0.00
2015,08,29,00,14,0.00
2015,08,29,00,15,0.00
2015,08,29,00,16,0.00
2015,08,29,00,17,0.00
2015,08,29,00,18,0.00
2015,08,29,00,19,0.00
2015,08,29,00,20,0.00
2015,08,29,00,21,0.00
2015,08,29,00,22,0.10
2015,08,29,00,23,0.20
2015,08,29,00,24,1.30
2015,08,29,00,25,0.00
2015,08,29,00,26,0.10
2015,08,29,00,27,0.00
2015,08,29,00,28,0.10
2015,08,29,00,29,0.50
2015,08,29,00,30,3.80
2015,08,29,00,31,0.60
2015,08,29,00,32,1.50
2015,08,29,00,33,1.30
2015,08,29,00,34,0.10
2015,08,29,00,35,0.00
2015,08,29,00,36,2.00
2015,08,29,00,37,4.00
2015,08,29,00,38,6.40
2015,08,29,00,39,8.20
2015,08,29,00,40,3.10
2015,08,29,00,41,3.30
2015,08,29,00,42,1.90
2015,08,29,00,43,0.80
2015,08,29,00,44,0.10
2015,08,29,00,45,0.00
2015,08,29,00,46,0.00
2015,08,29,00,47,3.40
2015,08,29,00,48,0.20
2015,08,29,00,49,0.20
2015,08,29,00,50,1.40
2015,08,29,00,51,5.60
2015,08,29,00,52,0.80
2015,08,29,00,53,0.10
2015,08,29,00,54,0.00
2015,08,29,00,55,0.00
2015,08,29,00,56,0.00
2015,08,29,00,57,0.00
2015,08,29,00,58,0.00
2015,08,29,00,59,3.50
2015,08,29,01,00,3.70
2015,08,29,01,01,1.40
2015,08,29,01,02,0.00
2015,08,29,01,03,0.00
2015,08,29,01,04,0.10
2015,08,29,01,05,0.00
2015,08,29,01,06,0.00
2015,08,29,01,07,0.00
2015,08,29,01,08,0.10
2015,08,29,01,09,0.00
2015,08,29,01,10,0.10
2015,08,29,01,11,2.40
2015,08,29,01,12,0.70
2015,08,29,01,13,0.00
2015,08,29,01,14,0.00
2015,08,29,01,15,0.40
2015,08,29,01,16,0.10
2015,08,29,01,17,0.80
2015,08,29,01,18,0.60
2015,08,29,01,19,0.00
2015,08,29,01,20,0.10
2015,08,29,01,21,0.00
2015,08,29,01,22,0.00
2015,08,29,01,23,0.00
2015,08,29,01,24,0.00
2015,08,29,01,25,0.10
2015,08,29,01,26,0.00
2015,08,29,01,27,0.00
2015,08,29,01,28,0.00
2015,08,29,01,29,0.00
2015,08,29,01,30,0.00
2015,08,29,01,31,0.00
2015,08,29,01,32,0.00
2015,08,29,01,33,0.00
2015,08,29,01,34,0.00
2015,08,29,01,35,0.00
2015,08,29,01,36,0.00
2015,08,29,01,37,0.00
2015,08,29,01,38,0.00
2015,08,29,01,39,0.00
2015,08,29,01,40,0.00
2015,08,29,01,41,0.00
2015,08,29,01,42,0.00
2015,08,29,01,43,0.00
2015,08,29,01,44,0.00
2015,08,29,01,45,0.00
2015,08,29,01,46,2.40
2015,08,29,01,47,1.80
2015,08,29,01,48,0.10
2015,08,29,01,49,0.00
2015,08,29,01,50,0.00
2015,08,29,01,51,0.00
2015,08,29,01,52,0.00
2015,08,29,01,53,0.00
2015,08,29,01,54,0.00
2015,08,29,01,55,0.00
2015,08,29,01,56,0.00
2015,08,29,01,57,0.00
2015,08,29,01,58,0.00
2015,08,29,01,59,0.00
2015,08,29,02,00,0.00
2015,08,29,02,01,0.00
2015,08,29,02,02,0.00
2015,08,29,02,03,0.00
2015,08,29,02,04,0.00
2015,08,29,02,05,0.00
2015,08,29,02,06,0.00
2015,08,29,02,07,0.00
2015,08,29,02,08,0.00
2015,08,29,02,09,0.00
2015,08,29,02,10,0.00
2015,08,29,02,11,0.00
2015,08,29,02,12,0.00
2015,08,29,02,13,0.00
2015,08,29,02,14,0.00
2015,08,29,02,15,0.00
2015,08,29,02,16,0.00
2015,08,29,02,17,0.00
2015,08,29,02,18,0.00
2015,08,29,02,19,0.00
2015,08,29,02,20,0.00
2015,08,29,02,21,0.00
2015,08,29,02,22,0.10
2015,08,29,02,23,0.00
2015,08,29,02,24,0.00
2015,08,29,02,25,0.00
2015,08,29,02,26,0.10
2015,08,29,02,27,1.40
2015,08,29,02,28,0.00
2015,08,29,02,29,0.10
2015,08,29,02,30,0.00
2015,08,29,02,31,0.00
2015,08,29,02,32,0.00
2015,08,29,02,33,0.00
2015,08,29,02,34,0.00
2015,08,29,02,35,0.00
2015,08,29,02,36,0.00
2015,08,29,02,37,0.00
2015,08,29,02,38,0.00
2015,08,29,02,39,0.00
2015,08,29,02,40,0.00
2015,08,29,02,41,0.00
2015,08,29,02,42,0.00
2015,08,29,02,43,0.00
2015,08,29,02,44,0.00
2015,08,29,02,45,0.00
2015,08,29,02,46,0.00
2015,08,29,02,47,0.00
2015,08,29,02,48,0.00
2015,08,29,02,49,0.00
2015,08,29,02,50,0.00
2015,08,29,02,51,0.00
2015,08,29,02,52,0.00
2015,08,29,02,53,0.00
2015,08,29,02,54,0.10
2015,08,29,02,55,0.00
2015,08,29,02,56,0.00
2015,08,29,02,57,0.00
2015,08,29,02,58,0.00
2015,08,29,02,59,0.00
2015,08,29,03,00,0.00
2015,08,29,03,01,0.00
2015,08,29,03,02,0.00
2015,08,29,03,03,0.00
2015,08,29,03,04,0.10
2015,08,29,03,05,0.00
2015,08,29,03,06,0.00
2015,08,29,03,07,0.00
2015,08,29,03,08,0.60
2015,08,29,03,09,1.40
2015,08,29,03,10,0.00
2015,08,29,03,11,1.60
2015,08,29,03,12,0.20
2015,08,29,03,13,0.70
2015,08,29,03,14,2.60
2015,08,29,03,15,2.50
2015,08,29,03,16,0.60
2015,08,29,03,17,0.00
2015,08,29,03,18,0.10
2015,08,29,03,19,0.00
2015,08,29,03,20,0.00
2015,08,29,03,21,0.00
2015,08,29,03,22,0.00
2015,08,29,03,23,0.00
2015,08,29,03,24,0.10
2015,08,29,03,25,0.00
2015,08,29,03,26,0.00
2015,08,29,03,27,0.00
2015,08,29,03,28,0.00
2015,08,29,03,29,0.00
2015,08,29,03,30,0.00
2015,08,29,03,31,0.20
2015,08,29,03,32,0.10
2015,08,29,03,33,0.00
2015,08,29,03,34,0.00
2015,08,29,03,35,0.00
2015,08,29,03,36,0.00
2015,08,29,03,37,0.00
2015,08,29,03,38,0.00
2015,08,29,03,39,0.00
2015,08,29,03,40,0.00
2015,08,29,03,41,0.00
2015,08,29,03,42,0.00
2015,08,29,03,43,0.00
2015,08,29,03,44,0.00
2015,08,29,03,45,0.00
2015,08,29,03,46,0.00
2015,08,29,03,47,0.00
2015,08,29,03,48,0.00
2015,08,29,03,49,0.00
2015,08,29,03,50,0.00
2015,08,29,03,51,0.00
2015,08,29,03,52,0.00
2015,08,29,03,53,0.00
2015,08,29,03,54,0.00
2015,08,29,03,55,0.00
2015,08,29,03,56,0.00
2015,08,29,03,57,0.00
2015,08,29,03,58,0.20
2015,08,29,03,59,1.40
2015,08,29,04,00,2.40
2015,08,29,04,01,0.00
2015,08,29,04,02,1.30
2015,08,29,04,03,3.20
2015,08,29,04,04,2.70
2015,08,29,04,05,1.80
2015,08,29,04,06,0.00
2015,08,29,04,07,0.00
2015,08,29,04,08,0.00
2015,08,29,04,09,0.00
2015,08,29,04,10,0.00
2015,08,29,04,11,1.70
2015,08,29,04,12,0.20
2015,08,29,04,13,0.10
2015,08,29,04,14,0.00
2015,08,29,04,15,0.00
2015,08,29,04,16,0.00
2015,08,29,04,17,0.00
2015,08,29,04,18,0.00
2015,08,29,04,19,0.00
2015,08,29,04,20,0.00
2015,08,29,04,21,0.00
2015,08,29,04,22,0.00
2015,08,29,04,23,0.00
2015,08,29,04,24,0.00
2015,08,29,04,25,0.00
2015,08,29,04,26,0.00
2015,08,29,04,27,0.00
2015,08,29,04,28,0.00
2015,08,29,04,29,0.10
2015,08,29,04,30,0.00
2015,08,29,04,31,0.00
2015,08,29,04,32,0.00
2015,08,29,04,33,0.00
2015,08,29,04,34,0.00
2015,08,29,04,35,0.00
2015,08,29,04,36,0.00
2015,08,29,04,37,0.00
2015,08,29,04,38,0.00
2015,08,29,04,39,0.00
2015,08,29,04,40,0.00
2015,08,29,04,41,0.00
2015,08,29,04,42,0.00
2015,08,29,04,43,0.00
2015,08,29,04,44,0.00
2015,08,29,04,45,0.00
2015,08,29,04,46,0.00
2015,08,29,04,47,0.00
2015,08,29,04,48,0.00
2015,08,29,04,49,0.00
2015,08,29,04,50,0.00
2015,08,29,04,51,0.00
2015,08,29,04,52,0.00
2015,08,29,04,53,0.00
2015,08,29,04,54,0.00
2015,08,29,04,55,0.00
2015,08,29,04,56,0.20
2015,08,29,04,57,0.00
2015,08,29,04,58,0.00
2015,08,29,04,59,0.00
2015,08,29,05,00,0.00
2015,08,29,05,01,0.00
2015,08,29,05,02,0.00
2015,08,29,05,03,0.00
2015,08,29,05,04,0.00
2015,08,29,05,05,0.00
2015,08,29,05,06,0.60
2015,08,29,05,07,0.20
2015,08,29,05,08,0.00
2015,08,29,05,09,0.00
2015,08,29,05,10,0.00
2015,08,29,05,11,0.00
2015,08,29,05,12,0.00
2015,08,29,05,13,0.00
2015,08,29,05,14,0.00
2015,08,29,05,15,0.00
2015,08,29,05,16,0.00
2015,08,29,05,17,0.00
2015,08,29,05,18,0.00
2015,08,29,05,19,0.00
2015,08,29,05,20,0.00
2015,08,29,05,21,0.00
2015,08,29,05,22,0.00
2015,08,29,05,23,0.00
2015,08,29,05,24,0.00
2015,08,29,05,25,0.00
2015,08,29,05,26,0.00
2015,08,29,05,27,0.00
2015,08,29,05,28,0.00
2015,08,29,05,29,0.00
2015,08,29,05,30,0.00
2015,08,29,05,31,0.00
2015,08,29,05,32,0.00
2015,08,29,05,33,0.00
2015,08,29,05,34,0.00
2015,08,29,05,35,0.00
2015,08,29,05,36,0.00
2015,08,29,05,37,0.00
2015,08,29,05,38,0.00
2015,08,29,05,39,0.00
2015,08,29,05,40,0.00
2015,08,29,05,41,0.00
2015,08,29,05,42,0.10
2015,08,29,05,43,0.00
2015,08,29,05,44,0.00
2015,08,29,05,45,0.00
2015,08,29,05,46,0.20
2015,08,29,05,47,1.10
2015,08,29,05,48,0.00
2015,08,29,05,49,0.00
2015,08,29,05,50,0.00
2015,08,29,05,51,4.10
2015,08,29,05,52,1.20
2015,08,29,05,53,2.00
2015,08,29,05,54,5.10
2015,08,29,05,55,1.50
2015,08,29,05,56,1.40
2015,08,29,05,57,4.10
2015,08,29,05,58,3.10
2015,08,29,05,59,5.30
2015,08,29,06,00,6.80
2015,08,29,06,01,7.00
2015,08,29,06,02,3.90
2015,08,29,06,03,0.30
2015,08,29,06,04,1.00
2015,08,29,06,05,4.30
2015,08,29,06,06,5.90
2015,08,29,06,07,4.80
2015,08,29,06,08,3.20
2015,08,29,06,09,3.90
2015,08,29,06,10,5.40
2015,08,29,06,11,5.20
2015,08,29,06,12,2.50
2015,08,29,06,13,6.20
2015,08,29,06,14,7.70
2015,08,29,06,15,5.70
2015,08,29,06,16,3.50
2015,08,29,06,17,4.10
2015,08,29,06,18,8.00
2015,08,29,06,19,2.70
2015,08,29,06,20,6.50
2015,08,29,06,21,7.90
2015,08,29,06,22,8.60
2015,08,29,06,23,3.60
2015,08,29,06,24,4.40
2015,08,29,06,25,5.70
2015,08,29,06,26,7.40
2015,08,29,06,27,5.40
2015,08,29,06,28,2.50
2015,08,29,06,29,3.70
2015,08,29,06,30,2.80
2015,08,29,06,31,6.40
2015,08,29,06,32,3.10
2015,08,29,06,33,7.00
2015,08,29,06,34,5.20
2015,08,29,06,35,3.80
2015,08,29,06,36,3.80
2015,08,29,06,37,3.90
2015,08,29,06,38,0.50
2015,08,29,06,39,3.40
2015,08,29,06,40,10.00
2015,08,29,06,41,10.00
2015,08,29,06,42,6.80
2015,08,29,06,43,6.90
2015,08,29,06,44,2.70
2015,08,29,06,45,5.90
2015,08,29,06,46,7.50
2015,08,29,06,47,10.50
2015,08,29,06,48,6.50
2015,08,29,06,49,4.90
2015,08,29,06,50,10.90
2015,08,29,06,51,6.80
2015,08,29,06,52,1.50
2015,08,29,06,53,6.90
2015,08,29,06,54,9.10
2015,08,29,06,55,7.20
2015,08,29,06,56,4.90
2015,08,29,06,57,6.10
2015,08,29,06,58,8.20
2015,08,29,06,59,6.10
2015,08,29,07,00,4.30
2015,08,29,07,01,1.70
2015,08,29,07,02,5.20
2015,08,29,07,03,4.00
2015,08,29,07,04,8.90
2015,08,29,07,05,6.00
2015,08,29,07,06,0.80
2015,08,29,07,07,5.60
2015,08,29,07,08,0.60
2015,08,29,07,09,4.30
2015,08,29,07,10,0.60
2015,08,29,07,11,3.00
2015,08,29,07,12,4.40
2015,08,29,07,13,0.10
2015,08,29,07,14,2.40
2015,08,29,07,15,1.90
2015,08,29,07,16,0.10
2015,08,29,07,17,5.30
2015,08,29,07,18,3.70
2015,08,29,07,19,2.50
2015,08,29,07,20,3.00
2015,08,29,07,21,5.00
2015,08,29,07,22,5.60
2015,08,29,07,23,2.20
2015,08,29,07,24,2.50
2015,08,29,07,25,3.00
2015,08,29,07,26,7.90
2015,08,29,07,27,3.40
2015,08,29,07,28,0.00
2015,08,29,07,29,1.30
2015,08,29,07,30,0.60
2015,08,29,07,31,3.10
2015,08,29,07,32,0.00
2015,08,29,07,33,0.00
2015,08,29,07,34,0.10
2015,08,29,07,35,0.00
2015,08,29,07,36,3.70
2015,08,29,07,37,3.30
2015,08,29,07,38,3.20
2015,08,29,07,39,4.20
2015,08,29,07,40,1.40
2015,08,29,07,41,0.10
2015,08,29,07,42,1.80
2015,08,29,07,43,6.90
2015,08,29,07,44,2.90
2015,08,29,07,45,0.20
2015,08,29,07,46,7.10
2015,08,29,07,47,2.80
2015,08,29,07,48,3.20
2015,08,29,07,49,6.10
2015,08,29,07,50,5.40
2015,08,29,07,51,1.00
2015,08,29,07,52,1.90
2015,08,29,07,53,6.00
2015,08,29,07,54,4.30
2015,08,29,07,55,2.70
2015,08,29,07,56,0.80
2015,08,29,07,57,3.90
2015,08,29,07,58,7.10
2015,08,29,07,59,4.80
2015,08,29,08,00,3.70
2015,08,29,08,01,3.80
2015,08,29,08,02,5.80
2015,08,29,08,03,0.80
2015,08,29,08,04,2.50
2015,08,29,08,05,3.90
2015,08,29,08,06,7.10
2015,08,29,08,07,4.80
2015,08,29,08,08,9.30
2015,08,29,08,09,6.20
2015,08,29,08,10,6.60
2015,08,29,08,11,3.60
2015,08,29,08,12,2.70
2015,08,29,08,13,4.80
2015,08,29,08,14,6.80
2015,08,29,08,15,7.50
2015,08,29,08,16,6.80
2015,08,29,08,17,3.30
2015,08,29,08,18,0.10
2015,08,29,08,19,2.70
2015,08,29,08,20,3.50
2015,08,29,08,21,0.90
2015,08,29,08,22,0.00
2015,08,29,08,23,2.70
2015,08,29,08,24,2.80
2015,08,29,08,25,6.40
2015,08,29,08,26,2.60
2015,08,29,08,27,0.60
2015,08,29,08,28,6.00
2015,08,29,08,29,6.90
2015,08,29,08,30,2.20
2015,08,29,08,31,5.10
2015,08,29,08,32,5.20
2015,08,29,08,33,7.60
2015,08,29,08,34,7.10
2015,08,29,08,35,0.60
2015,08,29,08,36,6.30
2015,08,29,08,37,4.10
2015,08,29,08,38,5.70
2015,08,29,08,39,8.00
2015,08,29,08,40,4.10
2015,08,29,08,41,7.80
2015,08,29,08,42,4.30
2015,08,29,08,43,0.20
2015,08,29,08,44,0.00
2015,08,29,08,45,1.50
2015,08,29,08,46,3.40
2015,08,29,08,47,2.90
2015,08,29,08,48,1.30
2015,08,29,08,49,3.60
2015,08,29,08,50,0.50
2015,08,29,08,51,0.00
2015,08,29,08,52,0.40
2015,08,29,08,53,0.30
2015,08,29,08,54,0.00
2015,08,29,08,55,2.30
2015,08,29,08,56,3.30
2015,08,29,08,57,4.70
2015,08,29,08,58,3.60
2015,08,29,08,59,3.80
2015,08,29,09,00,5.40
2015,08,29,09,01,8.10
2015,08,29,09,02,4.50
2015,08,29,09,03,8.10
2015,08,29,09,04,4.90
2015,08,29,09,05,4.10
2015,08,29,09,06,9.90
2015,08,29,09,07,9.10
2015,08,29,09,08,4.90
2015,08,29,09,09,5.80
2015,08,29,09,10,4.40
2015,08,29,09,11,9.30
2015,08,29,09,12,2.80
2015,08,29,09,13,5.00
2015,08,29,09,14,8.50
2015,08,29,09,15,8.10
2015,08,29,09,16,6.40
2015,08,29,09,17,4.60
2015,08,29,09,18,10.10
2015,08,29,09,19,7.40
2015,08,29,09,20,8.20
2015,08,29,09,21,8.90
2015,08,29,09,22,14.50
2015,08,29,09,23,9.70
2015,08,29,09,24,10.10
2015,08,29,09,25,9.30
2015,08,29,09,26,4.70
2015,08,29,09,27,6.10
2015,08,29,09,28,9.70
2015,08,29,09,29,8.50
2015,08,29,09,30,9.40
2015,08,29,09,31,3.90
2015,08,29,09,32,6.80
2015,08,29,09,33,4.80
2015,08,29,09,34,7.60
2015,08,29,09,35,12.00
2015,08,29,09,36,5.00
2015,08,29,09,37,3.40
2015,08,29,09,38,6.10
2015,08,29,11,15,17.40
2015,08,29,11,16,18.10
2015,08,29,11,17,10.50
2015,08,29,11,18,9.00
2015,08,29,11,19,8.60
2015,08,29,11,20,18.00
2015,08,29,11,21,9.80
2015,08,29,11,22,9.00
2015,08,29,11,23,11.70
2015,08,29,11,24,7.60
2015,08,29,11,25,17.90
2015,08,29,11,26,12.80
2015,08,29,11,27,12.80
2015,08,29,11,28,11.40
2015,08,29,11,29,7.20
2015,08,29,11,30,9.10
2015,08,29,11,31,11.40
2015,08,29,11,32,14.20
2015,08,29,11,33,12.20
2015,08,29,11,34,11.60
2015,08,29,11,35,12.50
2015,08,29,11,36,9.40
2015,08,29,11,37,7.00
2015,08,29,11,38,11.00
2015,08,29,11,39,16.70
2015,08,29,11,40,8.80
2015,08,29,11,41,5.10
2015,08,29,11,42,5.60
2015,08,29,11,43,7.50
2015,08,29,11,44,7.40
2015,08,29,11,45,9.60
2015,08,29,11,46,13.50
2015,08,29,11,47,11.20
2015,08,29,11,48,14.20
2015,08,29,11,49,15.30
2015,08,29,11,50,10.00
2015,08,29,11,51,9.60
2015,08,29,11,52,6.80
2015,08,29,11,53,3.70
2015,08,29,11,54,14.90
2015,08,29,11,55,11.50
2015,08,29,11,56,10.50
2015,08,29,11,57,12.60
2015,08,29,11,58,6.40
2015,08,29,11,59,14.70
2015,08,29,12,00,8.50
2015,08,29,12,01,11.70
2015,08,29,12,02,4.80
2015,08,29,12,03,12.10
2015,08,29,12,04,12.10
2015,08,29,12,05,7.40
2015,08,29,12,06,13.00
2015,08,29,12,07,8.60
2015,08,29,12,08,12.60
2015,08,29,12,09,12.30
2015,08,29,12,10,14.90
2015,08,29,12,11,13.30
2015,08,29,12,12,10.10
2015,08,29,12,13,9.20
2015,08,29,12,14,4.90
2015,08,29,12,15,3.40
2015,08,29,12,16,4.80
2015,08,29,12,17,8.50
2015,08,29,12,18,11.70
2015,08,29,12,19,8.50
2015,08,29,12,20,7.10
2015,08,29,12,21,7.50
2015,08,29,12,22,3.40
2015,08,29,12,23,0.10
2015,08,29,12,24,9.40
2015,08,29,12,25,8.20
2015,08,29,12,26,10.70
2015,08,29,12,27,11.50
2015,08,29,12,28,7.20
2015,08,29,12,29,6.80
2015,08,29,12,30,5.20
2015,08,29,12,31,3.90
2015,08,29,12,32,9.40
2015,08,29,12,33,13.40
2015,08,29,12,34,16.00
2015,08,29,12,35,11.00
2015,08,29,12,36,4.80
2015,08,29,12,37,9.40
2015,08,29,12,38,5.70
2015,08,29,12,39,12.70
2015,08,29,12,40,7.20
2015,08,29,12,41,5.30
2015,08,29,12,42,10.40
2015,08,29,12,43,8.10
2015,08,29,12,44,8.20
2015,08,29,12,45,13.40
2015,08,29,12,46,10.80
2015,08,29,12,47,5.30
2015,08,29,12,48,7.80
2015,08,29,12,49,8.70
2015,08,29,12,50,9.70
2015,08,29,12,51,5.20
2015,08,29,12,52,6.80
2015,08,29,12,53,4.50
2015,08,29,12,54,2.90
2015,08,29,12,55,7.10
2015,08,29,12,56,6.00
2015,08,29,12,57,4.70
2015,08,29,12,58,6.20
2015,08,29,12,59,7.20
2015,08,29,13,00,6.00
2015,08,29,13,01,6.00
2015,08,29,13,02,3.70
2015,08,29,13,03,7.40
2015,08,29,13,04,15.60
2015,08,29,13,05,7.60
2015,08,29,13,06,2.60
2015,08,29,13,07,13.10
2015,08,29,13,08,7.10
2015,08,29,13,09,9.00
2015,08,29,13,10,12.10
2015,08,29,13,11,17.60
2015,08,29,13,12,26.10
2015,08,29,13,13,10.80
2015,08,29,13,14,13.10
2015,08,29,13,15,11.10
2015,08,29,13,16,14.70
2015,08,29,13,17,34.00
2015,08,29,13,18,22.50
2015,08,29,13,19,23.20
2015,08,29,13,20,16.10
2015,08,29,13,21,31.80
2015,08,29,17,40,9.60
2015,08,29,17,41,12.20
2015,08,29,17,42,9.60
2015,08,29,17,43,6.10
2015,08,29,17,44,8.50
2015,08,29,17,45,9.60
2015,08,29,17,46,6.00
2015,08,29,17,47,7.40
2015,08,29,17,48,4.60
2015,08,29,17,49,12.50
2015,08,29,17,50,7.80
2015,08,29,17,51,9.20
2015,08,29,17,52,12.50
2015,08,29,17,53,10.40
2015,08,29,17,54,12.20
2015,08,29,17,55,12.00
2015,08,29,17,56,13.70
2015,08,29,17,57,8.10
2015,08,29,17,58,11.90
2015,08,29,17,59,11.60
2015,08,29,18,00,11.60
2015,08,29,18,01,10.40
2015,08,29,18,02,10.00
2015,08,29,18,03,11.40
2015,08,29,18,04,6.10
2015,08,29,18,05,5.70
2015,08,29,18,06,5.50
2015,08,29,18,07,3.90
2015,08,29,18,08,2.00
2015,08,29,18,09,5.00
2015,08,29,18,10,5.70
2015,08,29,18,11,3.90
2015,08,29,18,12,6.00
2015,08,29,18,13,0.70
2015,08,29,18,14,2.70
2015,08,29,18,15,2.70
2015,08,29,18,16,8.30
2015,08,29,18,17,4.80
2015,08,29,18,18,0.20
2015,08,29,18,19,0.00
2015,08,29,18,20,0.00
2015,08,29,18,21,0.10
2015,08,29,18,22,0.00
2015,08,29,18,23,0.00
2015,08,29,18,24,0.00
2015,08,29,18,25,0.00
2015,08,29,18,26,0.00
2015,08,29,18,27,0.00
2015,08,29,18,28,5.40
2015,08,29,18,29,3.40
2015,08,29,18,30,2.90
2015,08,29,18,31,0.80
2015,08,29,18,32,0.00
2015,08,29,18,33,3.30
2015,08,29,18,34,5.60
2015,08,29,18,35,4.70
2015,08,29,18,36,5.40
2015,08,29,18,37,0.60
2015,08,29,18,38,0.00
2015,08,29,18,39,0.10
2015,08,29,18,40,0.70
2015,08,29,18,41,5.10
2015,08,29,18,42,3.80
2015,08,29,18,43,6.40
2015,08,29,18,44,4.00
2015,08,29,18,45,8.00
2015,08,29,18,46,3.10
2015,08,29,18,47,2.50
2015,08,29,18,48,5.00
2015,08,29,18,49,8.00
2015,08,29,18,50,6.40
2015,08,29,18,51,0.30
2015,08,29,18,52,2.00
2015,08,29,18,53,8.00
2015,08,29,18,54,8.10
2015,08,29,18,55,6.00
2015,08,29,18,56,4.70
2015,08,29,18,57,5.80
2015,08,29,18,58,1.40
2015,08,29,18,59,0.00
2015,08,29,19,00,0.00
2015,08,29,19,01,0.00
2015,08,29,19,02,0.00
2015,08,29,19,03,0.00
2015,08,29,19,04,3.40
2015,08,29,19,05,0.80
2015,08,29,19,06,7.90
2015,08,29,19,07,7.00
2015,08,29,19,08,2.60
2015,08,29,19,09,0.00
2015,08,29,19,10,0.00
2015,08,29,19,11,0.20
2015,08,29,19,12,5.30
2015,08,29,19,13,8.50
2015,08,29,19,14,7.20
2015,08,29,19,15,3.50
2015,08,29,19,16,3.00
2015,08,29,19,17,2.70
2015,08,29,19,18,0.00
2015,08,29,19,19,0.00
2015,08,29,19,20,0.60
2015,08,29,19,21,4.50
2015,08,29,19,22,4.10
2015,08,29,19,23,6.40
2015,08,29,19,24,7.50
2015,08,29,19,25,4.30
2015,08,29,19,26,2.60
2015,08,29,19,27,1.90
2015,08,29,19,28,8.60
2015,08,29,19,29,6.80
2015,08,29,19,30,7.50
2015,08,29,19,31,6.30
2015,08,29,19,32,8.10
2015,08,29,19,33,6.20
2015,08,29,19,34,8.10
2015,08,29,19,35,9.30
2015,08,29,19,36,10.90
2015,08,29,19,37,9.90
2015,08,29,19,38,13.00
2015,08,29,19,39,9.10
2015,08,29,19,40,6.10
2015,08,29,19,41,11.40
2015,08,29,19,42,6.80
2015,08,29,19,43,10.20
2015,08,29,19,44,2.20
2015,08,29,19,45,8.00
2015,08,29,19,46,3.90
2015,08,29,19,47,8.50
2015,08,29,19,48,5.80
2015,08,29,19,49,2.30
2015,08,29,19,50,7.00
2015,08,29,19,51,5.50
2015,08,29,19,52,10.50
2015,08,29,19,53,13.20
2015,08,29,19,54,9.30
2015,08,29,19,55,17.30
2015,08,29,19,56,13.90
2015,08,29,19,57,11.50
2015,08,29,19,58,10.40
2015,08,29,19,59,7.30
2015,08,29,20,00,6.10
2015,08,29,20,01,8.30
2015,08,29,20,02,8.80
2015,08,29,20,03,9.00
2015,08,29,20,04,8.80
2015,08,29,20,05,7.00
2015,08,29,20,06,6.80
2015,08,29,20,07,8.60
2015,08,29,20,08,8.30
2015,08,29,20,09,9.80
2015,08,29,20,10,7.20
2015,08,29,20,11,5.10
2015,08,29,20,12,6.20
2015,08,29,20,13,10.70
2015,08,29,20,14,10.30
2015,08,29,20,15,9.30
2015,08,29,20,16,10.10
2015,08,29,20,17,10.90
2015,08,29,20,18,6.70
2015,08,29,20,19,7.20
2015,08,29,20,20,8.90
2015,08,29,20,21,1.30
2015,08,29,20,22,1.40
2015,08,29,20,23,6.50
2015,08,29,20,24,5.00
2015,08,29,20,25,6.00
2015,08,29,20,26,4.30
2015,08,29,20,27,6.40
2015,08,29,20,28,7.00
2015,08,29,20,29,8.70
2015,08,29,20,30,8.20
2015,08,29,20,31,7.10
2015,08,29,20,32,5.20
2015,08,29,20,33,10.80
2015,08,29,20,34,5.70
2015,08,29,20,35,0.00
2015,08,29,20,36,3.50
2015,08,29,20,37,3.00
2015,08,29,20,38,8.00
2015,08,29,20,39,11.10
2015,08,29,20,40,8.90
2015,08,29,20,41,5.60
2015,08,29,20,42,3.30
2015,08,29,20,43,4.70
2015,08,29,20,44,2.40
2015,08,29,20,45,5.70
2015,08,29,20,46,11.70
2015,08,29,20,47,5.10
2015,08,29,20,48,7.20
2015,08,29,20,49,10.70
2015,08,29,20,50,5.80
2015,08,29,20,51,4.20
2015,08,29,20,52,5.90
2015,08,29,20,53,5.80
2015,08,29,20,54,13.90
2015,08,29,20,55,12.20
2015,08,29,20,56,8.80
2015,08,29,20,57,6.80
2015,08,29,20,58,6.70
2015,08,29,20,59,4.20
2015,08,29,21,00,12.10
2015,08,29,21,01,10.60
2015,08,29,21,02,7.70
2015,08,29,21,03,18.30
2015,08,29,21,04,13.00
2015,08,29,21,05,10.50
2015,08,29,21,06,6.70
2015,08,29,21,07,7.60
2015,08,29,21,08,9.50
2015,08,29,21,09,7.60
2015,08,29,21,10,8.90
2015,08,29,21,11,3.90
2015,08,29,21,12,3.10
2015,08,29,21,13,5.70
2015,08,29,21,14,0.10
2015,08,29,21,15,0.00
2015,08,29,21,16,1.10
2015,08,29,21,17,7.70
2015,08,29,21,18,12.90
2015,08,29,21,19,9.00
2015,08,29,21,20,10.10
2015,08,29,21,21,6.90
2015,08,29,21,22,16.20
2015,08,29,21,23,14.10
2015,08,29,21,24,5.20
2015,08,29,21,25,4.40
2015,08,29,21,26,6.80
2015,08,29,21,27,7.30
2015,08,29,21,28,3.20
2015,08,29,21,29,6.80
2015,08,29,21,30,3.90
2015,08,29,21,31,3.70
2015,08,29,21,32,11.70
2015,08,29,21,33,9.80
2015,08,29,21,34,7.10
2015,08,29,21,35,4.70
2015,08,29,21,36,3.90
2015,08,29,21,37,2.00
2015,08,29,21,38,3.80
2015,08,29,21,39,4.20
2015,08,29,21,40,5.30
2015,08,29,21,41,8.60
2015,08,29,21,42,9.60
2015,08,29,21,43,3.40
2015,08,29,21,44,8.80
2015,08,29,21,45,5.30
2015,08,29,21,46,1.50
2015,08,29,21,47,8.20
2015,08,29,21,48,6.70
2015,08,29,21,49,0.20
2015,08,29,21,50,0.00
2015,08,29,21,51,0.90
2015,08,29,21,52,3.50
2015,08,29,21,53,6.70
2015,08,29,21,54,8.10
2015,08,29,21,55,7.80
2015,08,29,21,56,4.30
2015,08,29,21,57,1.50
2015,08,29,21,58,0.50
2015,08,29,21,59,5.30
2015,08,29,22,00,3.90
2015,08,29,22,01,8.30
2015,08,29,22,02,9.00
2015,08,29,22,03,8.90
2015,08,29,22,04,2.80
2015,08,29,22,05,8.00
2015,08,29,22,06,6.40
2015,08,29,22,07,5.70
2015,08,29,22,08,6.40
2015,08,29,22,09,7.50
2015,08,29,22,10,4.80
2015,08,29,22,11,8.60
2015,08,29,22,12,7.00
2015,08,29,22,13,9.90
2015,08,29,22,14,8.20
2015,08,29,22,15,6.80
2015,08,29,22,16,4.20
2015,08,29,22,17,8.20
2015,08,29,22,18,9.20
2015,08,29,22,28,12.50
2015,08,29,22,29,11.30
2015,08,29,22,30,7.50
2015,08,29,22,31,6.80
2015,08,29,22,32,9.50
2015,08,29,22,33,7.20
2015,08,29,22,34,6.10
2015,08,29,22,35,0.30
2015,08,29,22,36,4.30
2015,08,29,22,37,9.70
2015,08,29,22,38,8.00
2015,08,29,22,39,8.10
2015,08,29,22,40,5.40
2015,08,29,22,41,2.10
2015,08,29,22,42,7.00
2015,08,29,22,43,2.30
2015,08,29,22,44,8.40
2015,08,29,22,45,5.40
2015,08,29,22,46,7.40
2015,08,29,22,47,8.50
2015,08,29,22,48,7.50
2015,08,29,22,49,4.70
2015,08,29,22,50,9.50
2015,08,29,22,51,3.50
2015,08,29,22,52,2.30
2015,08,29,22,53,8.50
2015,08,29,22,54,8.00
2015,08,29,22,55,9.20
2015,08,29,22,56,11.70
2015,08,29,22,57,9.00
2015,08,29,22,58,9.00
2015,08,29,22,59,7.20
2015,08,29,23,00,7.20
2015,08,29,23,01,7.30
2015,08,29,23,02,1.30
2015,08,29,23,03,4.00
2015,08,29,23,04,1.30
2015,08,29,23,05,0.10
2015,08,29,23,06,6.40
2015,08,29,23,07,6.00
2015,08,29,23,08,3.50
2015,08,29,23,09,4.80
2015,08,29,23,10,6.10
2015,08,29,23,11,2.70
2015,08,29,23,12,7.10
2015,08,29,23,13,6.80
2015,08,29,23,14,3.10
2015,08,29,23,15,0.70
2015,08,29,23,16,1.20
2015,08,29,23,17,4.60
2015,08,29,23,18,6.00
2015,08,29,23,19,9.00
2015,08,29,23,20,9.80
2015,08,29,23,21,8.00
2015,08,29,23,22,1.70
2015,08,29,23,23,1.80
2015,08,29,23,24,2.90
2015,08,29,23,25,2.10
2015,08,29,23,26,2.40
2015,08,29,23,27,0.80
2015,08,29,23,28,5.80
2015,08,29,23,29,0.20
2015,08,29,23,30,5.90
2015,08,29,23,31,2.20
2015,08,29,23,32,7.80
2015,08,29,23,33,5.30
2015,08,29,23,34,5.80
2015,08,29,23,35,1.80
2015,08,29,23,36,5.10
2015,08,29,23,37,5.80
2015,08,29,23,38,9.70
2015,08,29,23,39,12.90
2015,08,29,23,40,7.80
2015,08,29,23,41,9.30
2015,08,29,23,42,3.60
2015,08,29,23,43,1.10
2015,08,29,23,44,6.30
2015,08,29,23,45,9.70
2015,08,29,23,46,6.30
2015,08,29,23,47,4.10
2015,08,29,23,48,4.60
2015,08,29,23,49,6.50
2015,08,29,23,50,0.30
2015,08,29,23,51,2.10
2015,08,29,23,52,4.60
2015,08,29,23,53,8.60
2015,08,29,23,54,0.60
2015,08,29,23,55,0.50
2015,08,29,23,56,5.80
2015,08,29,23,57,5.10
2015,08,29,23,58,1.60
2015,08,29,23,59,9.90
